Weather Roundup
Issued by NWS

Home | Current Version | Previous Version | Graphics & Text | Print | Product List | Glossary Off
Versions: 1 2 3 4 5 6 7 8 9 10 11 12 13 14 15 16 17 18 19 20 21 22 23 24 25 26 27 28 29 30 31 32 33 34 35 36 37 38 39 40 41 42 43 44 45 46 47 48 49 50

000
NZUS93 KARX 290310
HRRWXR

CURRENT HOURLY OBSERVATIONS ACROSS
MUCH OF THE UPPER MISSISSIPPI VALLEY
NATIONAL WEATHER SERVICE LA CROSSE WI
1000 PM CDT WED JUN 28 2017


...SOUTHEAST MINNESOTA...


CITY           SKY/WX    TMP DP  RH WIND       PRES   REMARKS
ROCHESTER      CLOUDY    67  66  97 SW9       29.64R
ROCHESTER/MAYO CLOUDY    68  65  91 SW9       29.62R
WINONA         TSTM      66  64  94 CALM      29.61S
AUSTIN         TSTM      68  63  83 CALM      29.64R
ALBERT LEA     TSTM      70  68  94 CALM      29.64R
DODGE CENTER   CLOUDY    70  66  88 SW5       29.62S
PRESTON        RAIN      66  64  91 W7        29.66R
OWATONNA       PTCLDY    72  66  83 CALM      29.62R
FARIBAULT      PTCLDY    70  64  83 CALM      29.61R
$$

...ELSEWHERE IN MINNESOTA...


CITY           SKY/WX    TMP DP  RH WIND       PRES   REMARKS
MINNEAPOLIS    PTCLDY    74  62  66 W12G18    29.57R
INTNL FALLS    LGT RAIN  60  58  92 NE5       29.63R
DULUTH         DRIZZLE   59  59 100 NW3       29.51R
RED WING       CLOUDY    70  66  88 CALM      29.57R
REDWOOD FALLS  CLEAR     70  60  70 NW8       29.64R
MANKATO        PTCLDY    73  64  73 NW10      29.63R
WORTHINGTON    CLEAR     69  63  81 W6        29.69R
FAIRMONT       CLEAR     73  66  78 NW8       29.65R
$$

...SOUTHWEST WISCONSIN...


CITY           SKY/WX    TMP DP  RH WIND       PRES   REMARKS
LA CROSSE      LGT RAIN  70  67  90 S14       29.63R
PRAIRIE DU CHI CLOUDY    67  66  95 E5        29.64R
BOSCOBEL       CLOUDY    68  66  93 CALM      29.66R
LONE ROCK      CLOUDY    69  65  86 CALM      29.68R
PLATTEVILLE    CLOUDY    67  67 100 S17       29.71R
FORT MC COY    LGT RAIN  65  65  98 SW6       29.63S
CAMP DOUGLAS   LGT RAIN  68  66  94 S13G21    29.63R
MAUSTON-NEW LI LGT RAIN  67  65  93 S14G22    29.61F
VIROQUA        CLOUDY    66  66 100 CALM      29.67R
WIS DELLS      CLOUDY    66  63  89 SW10G18   29.68R
$$

...ELSEWHERE IN WISCONSIN...


CITY           SKY/WX    TMP DP  RH WIND       PRES   REMARKS
MILWAUKEE      TSTM      66  64  93 S16G24    29.77F
MADISON        TSTM      66  63  90 S13       29.71R
GREEN BAY      CLOUDY    65  65 100 S9        29.64F
EAU CLAIRE     CLOUDY    67  65  93 S8        29.56R
BLACK RVR FLS  FAIR      67  67 100 SW6       29.60R THUNDER
MEDFORD        CLOUDY    65  64  96 SW10      29.60R
WAUSAU         CLOUDY    66  65  96 S6        29.59R
WIS RAPIDS     MOCLDY    67  66  97 SW8       29.64R
MARSHFIELD     CLOUDY    66  64  93 SW10      29.61R
RICE LAKE      MOCLDY    67  65  93 S8        29.57R
$$

...NORTHEAST IOWA...


CITY           SKY/WX    TMP DP  RH WIND       PRES   REMARKS
WATERLOO       CLOUDY    67  62  84 SW8       29.65S
DUBUQUE        MOCLDY    68  65  90 N15       29.69R
DECORAH        CLOUDY    68  63  83 VRB3G14   29.64R
MASON CITY     CLEAR     69  66  90 S9        29.66R
CHARLES CITY   CLOUDY    68  68 100 S13       29.66R
OELWEIN        CLOUDY    70  64  83 SW14G20   29.65S
$$

...ELSEWHERE IN IOWA...


CITY           SKY/WX    TMP DP  RH WIND       PRES   REMARKS
DES MOINES     CLOUDY    72  64  76 SW8       29.67R
IOWA CITY      MOCLDY    80  69  69 W10       29.72R
FORT DODGE     CLEAR     73  64  73 W5        29.67R
MARSHALLTOWN   CLOUDY    68  65  90 S9        29.69S
CEDAR RAPIDS   CLOUDY    72  71  97 NW9       29.72R
$$

...NORTHERN ILLINOIS...


CITY           SKY/WX    TMP DP  RH WIND       PRES   REMARKS
CHICAGO-OHARE  LGT RAIN  74  62  66 N12       29.82R
CHICAGO-MIDWAY TSTM      79  61  53 S21G31    29.80R
MOLINE         CLOUDY    80  64  58 S16       29.68R
ROCKFORD       TSTM      68  66  93 NE14      29.79F FOG
PEORIA         CLOUDY    78  63  59 S18       29.79S
$$

NOTE: "FAIR" INDICATES FEW OR NO CLOUDS BELOW 12,000 FEET WITH NO
SIGNIFICANT WEATHER AND/OR OBSTRUCTIONS TO VISIBILITY. WIND
SPEEDS ARE IN MILES-PER-HOUR.




USA.gov is the U.S. government's official web portal to all federal, state and local government web resources and services.